FW9776 Weather Reports


Display with metric or nautical units.
time (UTC)temp
F
wind
direction
speed
MPH
gust
MPH
rain 1hr
in
rain 24hr
in
rain mn
in
humidity
%
barometer
mb
20260505073101 44 215 3.0 8.0 0.00 0.10 0.00 84 1010.4
20260505071608 45 221 6.0 12.0 0.00 0.10 0.00 84 1010.3
20260505070109 45 228 6.0 10.0 0.00 0.10 0.00 84 1010.2
20260505064612 45 223 6.0 11.0 0.00 0.11 0.00 83 1009.9
20260505063452 45 238 4.0 12.0 0.00 0.11 0.00 83 1009.7
20260505060103 45 239 4.0 10.0 0.00 0.11 0.00 82 1009.2
20260505054611 46 225 5.0 12.0 0.00 0.13 0.00 81 1009.0
20260505051614 46 202 5.0 11.0 0.00 0.13 0.00 80 1008.5
20260505041559 48 230 5.0 13.0 0.00 0.17 0.00 77 1007.3
20260505040055 49 220 4.0 12.0 0.00 0.17 0.00 76 1007.2
20260505034555 49 231 7.0 13.0 0.00 0.25 0.00 75 1006.9
20260505033101 50 248 6.0 16.0 0.00 0.25 0.00 74 1006.8
20260505031559 50 233 7.0 12.0 0.00 0.25 0.00 74 1006.5
20260505030100 50 233 7.0 13.0 0.00 0.25 0.00 74 1006.2
20260505024557 50 231 6.0 14.0 0.00 0.25 0.25 74 1006.0
20260505023059 50 206 6.0 12.0 0.00 0.25 0.25 73 1005.9
20260505021555 51 217 5.0 12.0 0.00 0.25 0.25 72 1005.7
20260505014556 51 235 6.0 11.0 0.00 0.25 0.25 71 1005.4
20260505013105 51 231 6.0 13.0 0.00 0.25 0.25 69 1005.3
20260505011600 51 196 5.0 14.0 0.00 0.25 0.25 68 1005.2
20260505010111 52 202 5.0 14.0 0.00 0.25 0.25 66 1005.2
20260505004558 52 243 7.0 14.0 0.00 0.25 0.25 66 1005.1
20260505003058 52 205 7.0 19.0 0.00 0.25 0.25 66 1005.1
20260505001603 53 219 10.0 15.0 0.00 0.25 0.25 66 1004.8
20260504234555 54 239 8.0 20.0 0.00 0.26 0.25 59 1004.4
20260504233107 54 205 11.0 24.0 0.00 0.26 0.25 56 1004.2
20260504231604 55 239 7.0 13.0 0.00 0.26 0.25 48 1004.3
20260504230058 55 212 7.0 24.0 0.00 0.26 0.25 43 1003.9
20260504224558 56 250 12.0 21.0 0.00 0.30 0.25 42 1003.6
20260504223056 56 257 7.0 20.0 0.00 0.30 0.25 42 1003.4
20260504221555 56 241 7.0 14.0 0.00 0.30 0.25 41 1003.1
20260504220056 57 271 9.0 22.0 0.00 0.30 0.25 39 1003.1
20260504214602 58 268 12.0 28.0 0.00 0.37 0.25 39 1003.1
20260504213058 57 213 17.0 31.0 0.00 0.37 0.25 40 1003.2
20260504211559 58 283 11.0 28.0 0.00 0.37 0.25 40 1003.0
20260504210108 57 261 14.0 30.0 0.00 0.37 0.25 40 1002.8
20260504204602 57 249 13.0 26.0 0.00 0.47 0.25 43 1002.5
20260504203108 57 244 15.0 33.0 0.00 0.47 0.25 41 1002.3
20260504201603 57 249 12.0 30.0 0.00 0.47 0.25 42 1002.1
20260504200103 56 246 17.0 27.0 0.00 0.47 0.25 45 1001.9
20260504194608 56 260 15.0 28.0 0.00 0.55 0.25 45 1001.8
20260504193102 55 235 15.0 32.0 0.00 0.55 0.25 49 1001.7
20260504191558 55 227 17.0 31.0 0.00 0.55 0.25 53 1001.5
20260504190128 55 287 16.0 34.0 0.00 0.55 0.25 54 1001.6
20260504184559 55 250 17.0 30.0 0.00 0.55 0.25 57 1001.4
20260504183056 55 288 16.0 26.0 0.00 0.55 0.25 58 1001.0
20260504181605 55 243 14.0 28.0 0.00 0.55 0.25 60 1000.9
20260504180057 55 254 12.0 27.0 0.00 0.55 0.25 61 1000.8
20260504174601 54 257 15.0 28.0 0.00 0.55 0.25 62 1000.7
20260504173101 53 226 13.0 29.0 0.00 0.55 0.25 68 1000.6
20260504171556 53 249 16.0 27.0 0.00 0.55 0.25 66 1000.5
20260504081601 36 273 23.0 49.0 0.00 0.48 0.17 93 985.5